Saint Martin Island, Sint Maarten

8:52 PM AST on February 23, 2017 (GMT -0400)
Princess Juliana International

Weather History for TNCM - June, 2013

Change the Weather History Date:

Saturday, June 29, 2013

  Actual Average Record
Temperature  
Mean Temperature 84 °F -  
Max Temperature 88 °F 86 °F 91 °F (2001)
Min Temperature 80 °F 77 °F 75 °F (2004)
Cooling Degree Days 19    
Growing Degree Days 34 (Base 50)    
Moisture  
Dew Point 73 °F    
Average Humidity 70    
Maximum Humidity 84    
Minimum Humidity 52    
Precipitation  
Precipitation 0.00 in 0.10 in - ()
Sea Level Pressure  
Sea Level Pressure 29.99 in    
Wind  
Wind Speed 11 mph ()    
Max Wind Speed 18 mph    
Max Gust Speed -    
Visibility 8.1 miles    
Events Rain    
Averages and records for this station are not official NWS values.
T = Trace of Precipitation, MM = Missing Value Source: Averaged Metar Reports

Daily Weather History Graph

Daily Weather History Graph

Search for Another Location

Airport or City:

Trip Planner

Search our weather history database for the weather conditions in past years. The results will help you decide how hot, cold, wet, or windy it might be!

Date:

Astronomy

Jun. 29, 2013 Rise Set
Actual Time 5:39 AM AST 6:52 PM AST
Civil Twilight 5:15 AM AST 7:16 PM AST
Nautical Twilight 4:47 AM AST 7:44 PM AST
Astronomical Twilight 4:17 AM AST 8:14 PM AST
Moon 11:56 PM AST (6/29) 11:45 AM AST (6/29)
Length of Visible Light 14h 00m
Length of Day
13h 12m
Waning Gibbous, 56% of the Moon is Illuminated
Jun 29
Waning Gibbous
Jun 30
Last Quarter
Jul 8
New
Jul 15
First Quarter
Jul 22
Full

Hourly Weather History & Observations

Time (AST) Temp. Heat Index Dew Point Humidity Pressure Visibility Wind Dir Wind Speed Gust Speed Precip Events Conditions
12:00 AM 80.6 °F 85.4 °F 73.4 °F 79% 30.04 in 6.2 mi East 12.7 mph - N/A   Partly Cloudy
1:00 AM 80.6 °F 85.4 °F 73.4 °F 79% 30.01 in 6.2 mi East 11.5 mph - N/A   Partly Cloudy
2:00 AM 81 °F - 72 °F 68% 30.00 in 16 mi East 12.7 mph - -   Partly Cloudy
2:00 AM 80.6 °F 84.6 °F 71.6 °F 74% 29.98 in 6.2 mi East 12.7 mph - N/A   Partly Cloudy
3:00 AM 80.6 °F 84.6 °F 71.6 °F 74% 29.98 in 6.2 mi East 12.7 mph - N/A   Partly Cloudy
4:00 AM 80.6 °F 84.6 °F 71.6 °F 74% 29.98 in 6.2 mi East 10.4 mph - N/A   Partly Cloudy
5:00 AM 81 °F - 72 °F 68% 30.00 in 16 mi East 10.4 mph - -   Scattered Clouds
5:00 AM 80.6 °F 84.6 °F 71.6 °F 74% 29.98 in 6.2 mi East 10.4 mph - N/A   Partly Cloudy
6:00 AM 80.6 °F 84.6 °F 71.6 °F 74% 29.98 in 6.2 mi ENE 8.1 mph - N/A   Partly Cloudy
7:00 AM 82.4 °F 88.2 °F 73.4 °F 74% 30.01 in 6.2 mi East 9.2 mph - N/A   Mostly Cloudy
8:00 AM 82.4 °F 88.2 °F 73.4 °F 74% 30.01 in 6.2 mi East 11.5 mph - N/A   Scattered Clouds
9:00 AM 84.2 °F 89.6 °F 71.6 °F 66% 30.01 in 6.2 mi East 12.7 mph - N/A   Scattered Clouds
10:00 AM 86.0 °F 91.8 °F 71.6 °F 62% 30.01 in 6.2 mi East 12.7 mph - N/A   Scattered Clouds
11:00 AM 86 °F - 71 °F 52% 30.02 in 19 mi East 18.4 mph - -   Partly Cloudy
11:00 AM 86.0 °F 90.4 °F 69.8 °F 58% 30.01 in 6.2 mi ENE 18.4 mph - N/A   Scattered Clouds
12:00 PM 84.2 °F 89.6 °F 71.6 °F 66% 30.01 in 6.2 mi East 13.8 mph - N/A   Mostly Cloudy
1:00 PM 86.0 °F 91.8 °F 71.6 °F 62% 30.01 in 6.2 mi ENE 17.3 mph - N/A   Mostly Cloudy
2:00 PM 87 °F - 72 °F 52% 30.00 in 12 mi East 13.8 mph - -   Partly Cloudy
2:00 PM 86.0 °F 91.8 °F 71.6 °F 62% 29.98 in 6.2 mi East 13.8 mph - N/A   Scattered Clouds
3:00 PM 87.8 °F 95.6 °F 73.4 °F 62% 29.98 in 6.2 mi ENE 13.8 mph - N/A   Mostly Cloudy
4:00 PM 86.0 °F 93.4 °F 73.4 °F 66% 29.95 in 6.2 mi ENE 15.0 mph - N/A   Mostly Cloudy
5:00 PM 82 °F - 73 °F 69% 29.98 in 12 mi ENE 15.0 mph - - Rain Light Rain Showers
5:00 PM 82.4 °F 88.2 °F 73.4 °F 74% 29.98 in 6.2 mi ENE 15.0 mph - N/A   Mostly Cloudy
6:00 PM 84.2 °F 90.9 °F 73.4 °F 70% 29.95 in 6.2 mi East 13.8 mph - N/A   Scattered Clouds
7:00 PM 82.4 °F 88.2 °F 73.4 °F 74% 29.98 in 6.2 mi East 12.7 mph - N/A   Scattered Clouds
8:00 PM 81 °F - 74 °F 75% 29.99 in 19 mi ESE 12.7 mph - - Rain Light Rain Showers
8:00 PM 80.6 °F 86.2 °F 75.2 °F 84% 29.98 in 6.2 mi ESE 12.7 mph - N/A   Partly Cloudy
9:00 PM 80.6 °F 85.4 °F 73.4 °F 79% 29.98 in 6.2 mi ESE 11.5 mph - N/A Rain Light Rain Showers
10:00 PM 80.6 °F 86.2 °F 75.2 °F 84% 30.01 in 6.2 mi ESE 9.2 mph - N/A   Scattered Clouds
11:00 PM 82 °F - 74 °F 72% 30.02 in 22 mi ESE 11.5 mph - -   Partly Cloudy
11:00 PM 82.4 °F 89.5 °F 75.2 °F 79% 30.01 in 6.2 mi ESE 11.5 mph - N/A   Partly Cloudy